Location: Bismarck
(46.7731°N, 100.8200°W)
Time: 22:11:27
(UTC-05:00)

ISS - Visible Passes

Search period start: 21 October 2014 00:00
Search period end: 31 October 2014 00:00
Orbit: 413 x 416 km, 51.6° (Epoch: 21 October)

Date Brightness Start Highest point End Pass type
(mag) Time Alt. Az. Time Alt. Az. Time Alt. Az.
21 Oct -2.6 19:25:52 10° WNW 19:29:05 42° NNE 19:31:58 12° E visible
21 Oct -1.7 21:02:35 10° WNW 21:04:50 36° W 21:04:50 36° W visible
22 Oct -3.3 20:13:29 10° WNW 20:16:51 86° SSW 20:17:51 43° ESE visible
23 Oct -3.2 19:24:23 10° WNW 19:27:43 66° NNE 19:30:55 11° ESE visible
23 Oct -1.2 21:01:25 10° W 21:03:47 24° SW 21:03:47 24° SW visible
24 Oct -2.1 20:12:02 10° WNW 20:15:11 39° SW 20:16:57 21° SSE visible
25 Oct -2.8 19:22:45 10° WNW 19:26:04 62° SSW 19:29:22 10° SE visible
25 Oct -0.2 21:01:25 10° WSW 21:02:11 11° SW 21:02:56 10° SW visible
26 Oct -0.6 20:10:53 10° W 20:13:11 17° SW 20:15:28 10° S visible
27 Oct -1.2 19:21:11 10° W 19:24:05 28° SW 19:26:58 10° SSE visible
29 Oct 0.0 19:20:22 10° WSW 19:21:46 12° SW 19:23:10 10° SSW visible
